Corona, CA

1:25 AM PDT on June 29, 2017 (GMT -0700)
Corona Municipal

Weather History for KAJO - February, 2014

Change the Weather History Date:

Wednesday, February 26, 2014

  Actual Average (KCNO) Record (KCNO)
Temperature  
Mean Temperature 57 °F -  
Max Temperature 64 °F 63 °F 86 °F (2002)
Min Temperature 50 °F 41 °F 32 °F (2013)
Degree Days  
Heating Degree Days 8    
Growing Degree Days 7 (Base 50)    
Moisture  
Dew Point 48 °F    
Average Humidity 70    
Maximum Humidity 89    
Minimum Humidity 52    
Precipitation  
Precipitation 0.00 in - - ()
Sea Level Pressure  
Sea Level Pressure 30.04 in    
Wind  
Wind Speed 3 mph (WNW)    
Max Wind Speed 10 mph    
Max Gust Speed -    
Visibility 10 miles    
Events      
Averages and records for this station are not official NWS values.
T = Trace of Precipitation, MM = Missing Value Source: NWS Daily Summary

Daily Weather History Graph

Daily Weather History Graph

Search for Another Location

Airport or City:

Trip Planner

Search our weather history database for the weather conditions in past years. The results will help you decide how hot, cold, wet, or windy it might be!

Date:

Astronomy

Feb. 26, 2014 Rise Set
Actual Time 6:22 AM PST 5:44 PM PST
Civil Twilight 5:57 AM PST 6:09 PM PST
Nautical Twilight 5:28 AM PST 6:38 PM PST
Astronomical Twilight 4:59 AM PST 7:07 PM PST
Moon 4:06 AM PST (2/26) 3:09 PM PST (2/26)
Length of Visible Light 12h 12m
Length of Day
11h 21m
Waning Crescent, 9% of the Moon is Illuminated
Feb 26
Waning Crescent
Mar 1
New
Mar 8
First Quarter
Mar 16
Full
Mar 23
Last Quarter

Hourly Weather History & Observations

Time (PST) Temp. Dew Point Humidity Pressure Visibility Wind Dir Wind Speed Gust Speed Precip Events Conditions
12:33 AM 50.0 °F 46.4 °F 87% 30.07 in 7.0 mi Calm Calm - N/A   Mostly Cloudy
12:56 AM 50.9 °F 47.8 °F 89% 30.05 in 9.0 mi Calm Calm - N/A   Mostly Cloudy
1:56 AM 54.0 °F 48.9 °F 83% 30.04 in 10.0 mi West 3.5 mph - N/A   Mostly Cloudy
2:56 AM 54.9 °F 48.9 °F 80% 30.02 in 10.0 mi Calm Calm - N/A   Overcast
3:56 AM 54.9 °F 48.9 °F 80% 30.03 in 10.0 mi Calm Calm - N/A   Mostly Cloudy
4:30 AM 55.4 °F 48.2 °F 77% 30.05 in 10.0 mi Calm Calm - N/A   Mostly Cloudy
4:56 AM 54.9 °F 47.8 °F 77% 30.04 in 10.0 mi West 5.8 mph - N/A   Scattered Clouds
5:56 AM 54.0 °F 47.8 °F 80% 30.06 in 10.0 mi Calm Calm - N/A   Mostly Cloudy
6:56 AM 54.0 °F 46.9 °F 77% 30.08 in 10.0 mi Calm Calm - N/A   Overcast
7:56 AM 56.8 °F 48.9 °F 75% 30.09 in 9.0 mi NE 4.6 mph - N/A   Overcast
8:56 AM 59.0 °F 48.9 °F 69% 30.08 in 10.0 mi East 10.4 mph - N/A   Mostly Cloudy
9:56 AM 61.0 °F 47.8 °F 62% 30.07 in 10.0 mi ENE 9.2 mph - N/A   Overcast
10:56 AM 63.9 °F 46.9 °F 54% 30.05 in 10.0 mi Variable 6.9 mph - N/A   Mostly Cloudy
11:56 AM 63.0 °F 45.9 °F 54% 30.06 in 10.0 mi Variable 4.6 mph - N/A   Overcast
12:56 PM 63.0 °F 47.8 °F 58% 30.04 in 10.0 mi Variable 6.9 mph - N/A   Overcast
1:56 PM 63.9 °F 46.9 °F 54% 30.03 in 10.0 mi West 6.9 mph - N/A   Overcast
2:56 PM 64.9 °F 46.9 °F 52% 30.01 in 10.0 mi WNW 9.2 mph - N/A   Mostly Cloudy
3:56 PM 64.9 °F 46.9 °F 52% 30.02 in 10.0 mi West 9.2 mph - N/A   Mostly Cloudy
4:56 PM 63.0 °F 50.0 °F 63% 30.01 in 10.0 mi West 5.8 mph - N/A   Scattered Clouds
5:56 PM 61.0 °F 50.0 °F 67% 30.01 in 10.0 mi West 5.8 mph - N/A   Clear
6:56 PM 59.9 °F 50.9 °F 72% 30.03 in 10.0 mi West 6.9 mph - N/A   Mostly Cloudy
7:56 PM 59.9 °F 50.0 °F 70% 30.04 in 10.0 mi West 8.1 mph - N/A   Overcast
8:56 PM 57.9 °F 50.0 °F 75% 30.04 in 10.0 mi Calm Calm - N/A   Mostly Cloudy
9:56 PM 59.0 °F 50.0 °F 72% 30.05 in 10.0 mi Calm Calm - N/A   Overcast
10:56 PM 59.0 °F 50.0 °F 72% 30.03 in 10.0 mi Calm Calm - N/A   Mostly Cloudy
11:56 PM 59.0 °F 50.0 °F 72% 30.02 in 10.0 mi Calm Calm - N/A   Overcast